Location: Bothwell
(42.3833°S, 147.0000°E)
Time: 11:35:27
(UTC+11:00)

ESTCUBE 1 - Visible Passes

Search period start: 05 October 2023 00:00
Search period end: 15 October 2023 00:00
Orbit: 640 x 652 km, 97.9° (Epoch: 04 October)

Date Brightness Start Highest point End Pass type
(mag) Time Alt. Az. Time Alt. Az. Time Alt. Az.
10 Oct ? 00:11:44 10° S 00:11:55 11° S 00:11:55 11° S visible
11 Oct ? 00:37:14 10° S 00:37:29 11° S 00:37:29 11° S visible
12 Oct ? 23:50:30 10° SSE 23:50:52 12° SSE 23:50:52 12° SSE visible
14 Oct ? 00:15:46 10° S 00:16:25 14° S 00:16:25 14° S visible
